sat.trackr.live / text

‹ back to catalog

HJ-2E

NORAD 54035 · 2022-132A

PAYLOAD ACTIVE UNKNOWN

§ Identity

Operator
Country
PRC
Launch date
2022-10-12
Launch site
TAISC
Launch vehicle
Mass (kg)
RCS (m²)

External: N2YO · Heavens-Above · Gunter

§ Orbital elements

Epoch: 2026-05-25T05:02:58.667136Z

Period
94.62 min
Inclination
97.3804°
Eccentricity
0.0022640
Mean motion
15.21912573 rev/d
Perigee alt
484.5 km
Apogee alt
515.6 km
Semi-major
6,878.2 km
B*
3.3339e-4
RAAN
150.0081°
Arg perigee
90.5338°
Mean anomaly
269.8492°
Rev number
20,092

§ Raw data

HJ-2E1 54035U 22132A   26145.21040124  .00007577  00000+0  33339-3 0  99982 54035  97.3804 150.0081 0022640  90.5338 269.8492 15.21912573200926

JSON: /api/v1/satellites/54035 · /tle

For live sub-satellite position, see the globe view (requires WebGL).

§ Visibility from observer

Set your observer location to see the next 7 days of passes ≥ 10°. The values pass through the URL so the page stays shareable.

No JS? Fill the form by hand. The geolocation button needs JavaScript.

§ Radio — SatNOGS DB

ModeDescriptionDownlinkUplink
BPSK BPSK 2.203 GHz

1 transmitter · refreshed weekly from db.satnogs.org